Time,TemperatureF,DewpointF,PressureIn,WindDirection,WindDirectionDegrees,WindSpeedMPH,WindSpeedGustMPH,Humidity,HourlyPrecipIn,Conditions,Clouds,dailyrainin,SoftwareType,DateUTC
2013-09-10 00:01:00,67.6,65.8,29.99,SW,225,11.8,11.8,94,0.00,,,0.00,WUHU216HW,2013-09-10 04:01:00,
2013-09-10 00:02:00,67.8,65.9,29.99,WSW,248,0.0,11.8,94,0.00,,,0.00,WUHU216HW,2013-09-10 04:02:00,
2013-09-10 00:03:00,67.8,65.9,29.99,WSW,248,0.0,11.8,94,0.00,,,0.00,WUHU216HW,2013-09-10 04:03:00,
2013-09-10 00:08:00,67.8,65.9,29.98,WSW,248,2.0,11.8,94,0.00,,,0.00,WUHU216HW,2013-09-10 04:08:00,
2013-09-10 00:13:00,67.8,65.9,29.98,South,180,4.6,4.6,94,0.00,,,0.00,WUHU216HW,2013-09-10 04:13:00,
2013-09-10 00:18:00,68.1,66.3,29.98,SSW,203,0.0,5.3,94,0.00,,,0.00,WUHU216HW,2013-09-10 04:18:00,
2013-09-10 00:23:00,68.1,66.0,29.98,SSW,203,6.7,6.7,93,0.00,,,0.00,WUHU216HW,2013-09-10 04:23:00,
2013-09-10 00:28:00,68.1,66.0,29.98,NNW,338,0.0,6.7,93,0.00,,,0.00,WUHU216HW,2013-09-10 04:28:00,
2013-09-10 00:33:00,68.1,66.0,29.98,North,0,0.0,6.7,93,0.00,,,0.00,WUHU216HW,2013-09-10 04:33:00,
2013-09-10 00:38:00,68.1,66.0,29.99,South,180,9.1,9.1,93,0.00,,,0.00,WUHU216HW,2013-09-10 04:38:00,
2013-09-10 00:43:00,68.5,66.3,29.99,WSW,248,0.0,9.1,93,0.00,,,0.00,WUHU216HW,2013-09-10 04:43:00,
2013-09-10 00:48:00,68.5,66.3,29.98,South,180,0.0,9.1,93,0.00,,,0.00,WUHU216HW,2013-09-10 04:48:00,
2013-09-10 00:53:00,68.5,66.3,29.98,SSE,158,3.8,5.1,93,0.00,,,0.00,WUHU216HW,2013-09-10 04:53:00,
2013-09-10 00:58:00,68.7,66.5,29.98,WSW,248,0.0,3.8,93,0.00,,,0.00,WUHU216HW,2013-09-10 04:58:00,
2013-09-10 01:04:00,68.7,66.5,29.98,South,180,0.0,3.8,93,0.00,,,0.00,WUHU216HW,2013-09-10 05:04:00,
2013-09-10 01:09:00,68.7,66.5,29.97,SSW,203,0.0,0.0,93,0.00,,,0.00,WUHU216HW,2013-09-10 05:09:00,
2013-09-10 01:14:00,68.7,66.5,29.98,East,90,0.0,3.1,93,0.00,,,0.00,WUHU216HW,2013-09-10 05:14:00,
2013-09-10 01:19:00,68.7,66.5,29.97,SSE,158,0.0,3.1,93,0.00,,,0.00,WUHU216HW,2013-09-10 05:19:00,
2013-09-10 01:24:00,68.7,66.5,29.98,SSW,203,1.7,4.2,93,0.00,,,0.00,WUHU216HW,2013-09-10 05:24:00,
2013-09-10 01:29:00,68.7,66.5,29.97,South,180,3.5,4.2,93,0.00,,,0.00,WUHU216HW,2013-09-10 05:29:00,
2013-09-10 01:34:00,68.7,66.2,29.97,NW,315,0.0,3.5,92,0.00,,,0.00,WUHU216HW,2013-09-10 05:34:00,
2013-09-10 01:39:00,68.7,66.2,29.97,SSW,203,0.0,2.9,92,0.00,,,0.00,WUHU216HW,2013-09-10 05:39:00,
2013-09-10 01:44:00,68.7,66.2,29.97,SSW,203,0.0,0.0,92,0.00,,,0.00,WUHU216HW,2013-09-10 05:44:00,
2013-09-10 01:49:00,68.7,66.2,29.97,SE,135,0.0,0.0,92,0.00,,,0.00,WUHU216HW,2013-09-10 05:49:00,
2013-09-10 01:54:00,68.5,66.0,29.97,SSW,203,0.0,0.0,92,0.00,,,0.00,WUHU216HW,2013-09-10 05:54:00,
2013-09-10 01:59:00,68.5,66.0,29.97,SW,225,3.5,3.5,92,0.00,,,0.00,WUHU216HW,2013-09-10 05:59:00,
2013-09-10 02:04:00,68.5,66.0,29.97,South,180,0.0,3.5,92,0.00,,,0.00,WUHU216HW,2013-09-10 06:04:00,
2013-09-10 02:09:00,68.5,66.0,29.97,NW,315,0.0,3.5,92,0.00,,,0.00,WUHU216HW,2013-09-10 06:09:00,
2013-09-10 02:14:00,68.7,66.5,29.97,SSW,203,6.2,6.2,93,0.00,,,0.00,WUHU216HW,2013-09-10 06:14:00,
2013-09-10 02:19:00,68.7,66.5,29.97,SSW,203,12.0,12.0,93,0.00,,,0.00,WUHU216HW,2013-09-10 06:19:00,
2013-09-10 02:25:00,68.9,66.7,29.97,South,180,3.1,12.0,93,0.00,,,0.00,WUHU216HW,2013-09-10 06:25:00,
2013-09-10 02:30:00,68.9,66.7,29.97,South,180,1.5,12.0,93,0.00,,,0.00,WUHU216HW,2013-09-10 06:30:00,
2013-09-10 02:35:00,68.9,66.7,29.97,ESE,113,0.0,3.1,93,0.00,,,0.00,WUHU216HW,2013-09-10 06:35:00,
2013-09-10 02:40:00,68.7,66.5,29.97,SE,135,0.0,3.1,93,0.00,,,0.00,WUHU216HW,2013-09-10 06:40:00,
2013-09-10 02:45:00,68.5,66.3,29.97,SSW,203,4.4,4.4,93,0.00,,,0.00,WUHU216HW,2013-09-10 06:45:00,
2013-09-10 02:50:00,68.5,66.3,29.97,ENE,68,0.0,4.4,93,0.00,,,0.00,WUHU216HW,2013-09-10 06:50:00,
2013-09-10 02:55:00,68.5,66.3,29.98,West,270,0.0,4.4,93,0.00,,,0.00,WUHU216HW,2013-09-10 06:55:00,
2013-09-10 03:00:00,68.5,66.3,29.97,SE,135,0.0,1.3,93,0.00,,,0.00,WUHU216HW,2013-09-10 07:00:00,
2013-09-10 03:05:00,68.3,66.2,29.98,ENE,68,0.0,1.3,93,0.00,,,0.00,WUHU216HW,2013-09-10 07:05:00,
2013-09-10 03:10:00,68.3,66.2,29.98,WSW,248,0.0,0.0,93,0.00,,,0.00,WUHU216HW,2013-09-10 07:10:00,
2013-09-10 03:15:00,68.3,66.2,29.98,NNW,338,0.0,0.0,93,0.00,,,0.00,WUHU216HW,2013-09-10 07:15:00,
2013-09-10 03:20:00,68.3,66.2,29.98,NNE,23,0.0,0.0,93,0.00,,,0.00,WUHU216HW,2013-09-10 07:20:00,
2013-09-10 03:25:00,68.3,66.2,29.97,WNW,293,0.0,0.0,93,0.00,,,0.00,WUHU216HW,2013-09-10 07:25:00,
2013-09-10 03:30:00,68.3,66.2,29.98,WSW,248,0.0,0.0,93,0.00,,,0.00,WUHU216HW,2013-09-10 07:30:00,
2013-09-10 03:35:00,68.1,66.0,29.98,WNW,293,0.0,0.0,93,0.00,,,0.00,WUHU216HW,2013-09-10 07:35:00,
2013-09-10 03:40:00,68.1,66.0,29.98,North,0,0.0,0.0,93,0.00,,,0.00,WUHU216HW,2013-09-10 07:40:00,
2013-09-10 03:46:00,68.1,66.0,29.98,South,180,0.0,0.0,93,0.00,,,0.00,WUHU216HW,2013-09-10 07:46:00,
2013-09-10 03:51:00,68.1,66.0,29.98,South,180,2.0,2.0,93,0.00,,,0.00,WUHU216HW,2013-09-10 07:51:00,
2013-09-10 03:56:00,68.1,66.0,29.97,SSE,158,0.0,2.0,93,0.00,,,0.00,WUHU216HW,2013-09-10 07:56:00,
2013-09-10 04:01:00,68.1,66.0,29.98,SW,225,0.0,2.0,93,0.00,,,0.00,WUHU216HW,2013-09-10 08:01:00,
2013-09-10 04:06:00,68.1,66.2,29.97,SW,225,0.0,0.0,93,0.00,,,0.00,WUHU216HW,2013-09-10 08:06:00,
2013-09-10 04:11:00,68.1,66.0,29.97,SSW,203,5.5,5.5,93,0.00,,,0.00,WUHU216HW,2013-09-10 08:11:00,
2013-09-10 04:16:00,68.3,66.5,29.97,SE,135,0.0,5.5,94,0.00,,,0.00,WUHU216HW,2013-09-10 08:16:00,
2013-09-10 04:21:00,68.3,66.5,29.97,SE,135,0.0,0.0,94,0.00,,,0.00,WUHU216HW,2013-09-10 08:21:00,
2013-09-10 04:26:00,68.5,66.7,29.97,SSW,203,1.3,2.9,94,0.00,,,0.00,WUHU216HW,2013-09-10 08:26:00,
2013-09-10 04:31:00,68.3,66.5,29.97,ESE,113,0.0,2.9,94,0.00,,,0.00,WUHU216HW,2013-09-10 08:31:00,
2013-09-10 04:36:00,68.3,66.5,29.97,NNE,23,0.0,0.0,94,0.00,,,0.00,WUHU216HW,2013-09-10 08:36:00,
2013-09-10 04:41:00,68.3,66.5,29.97,NNE,23,0.0,0.0,94,0.00,,,0.00,WUHU216HW,2013-09-10 08:41:00,
2013-09-10 04:46:00,68.3,66.5,29.97,SW,225,0.0,0.0,94,0.00,,,0.00,WUHU216HW,2013-09-10 08:46:00,
2013-09-10 04:51:00,68.1,66.3,29.97,South,180,2.0,2.0,94,0.00,,,0.00,WUHU216HW,2013-09-10 08:51:00,
2013-09-10 04:56:00,68.3,66.5,29.97,SE,135,0.0,2.0,94,0.00,,,0.00,WUHU216HW,2013-09-10 08:56:00,
2013-09-10 05:02:00,68.1,66.3,29.97,West,270,0.0,2.0,94,0.00,,,0.00,WUHU216HW,2013-09-10 09:02:00,
2013-09-10 05:07:00,68.1,66.3,29.97,West,270,0.0,0.0,94,0.00,,,0.00,WUHU216HW,2013-09-10 09:07:00,
2013-09-10 05:12:00,67.8,65.9,29.97,West,270,0.0,0.0,94,0.00,,,0.00,WUHU216HW,2013-09-10 09:12:00,
2013-09-10 05:17:00,67.8,65.9,29.98,NW,315,0.0,0.0,94,0.00,,,0.00,WUHU216HW,2013-09-10 09:17:00,
2013-09-10 05:22:00,67.8,65.9,29.98,North,0,0.0,0.0,94,0.00,,,0.00,WUHU216HW,2013-09-10 09:22:00,
2013-09-10 05:27:00,68.1,66.3,29.98,NW,315,0.0,0.0,94,0.00,,,0.00,WUHU216HW,2013-09-10 09:27:00,
2013-09-10 05:32:00,67.8,65.9,29.98,WSW,248,0.0,0.0,94,0.00,,,0.00,WUHU216HW,2013-09-10 09:32:00,
2013-09-10 05:37:00,67.6,65.8,29.99,WSW,248,0.0,0.0,94,0.00,,,0.00,WUHU216HW,2013-09-10 09:37:00,
2013-09-10 05:42:00,67.6,65.8,29.99,WSW,248,0.0,0.0,94,0.00,,,0.00,WUHU216HW,2013-09-10 09:42:00,
2013-09-10 05:47:00,67.4,65.6,29.98,North,0,0.0,0.0,94,0.00,,,0.00,WUHU216HW,2013-09-10 09:47:00,
2013-09-10 05:52:00,67.6,65.8,29.98,WNW,293,0.0,0.0,94,0.00,,,0.00,WUHU216HW,2013-09-10 09:52:00,
2013-09-10 05:57:00,67.6,65.8,29.99,NNW,338,0.0,0.0,94,0.00,,,0.00,WUHU216HW,2013-09-10 09:57:00,
2013-09-10 06:02:00,67.8,65.9,29.99,West,270,0.0,0.0,94,0.00,,,0.00,WUHU216HW,2013-09-10 10:02:00,
2013-09-10 06:07:00,67.8,65.9,29.99,West,270,0.0,0.0,94,0.00,,,0.00,WUHU216HW,2013-09-10 10:07:00,
2013-09-10 06:13:00,67.8,65.9,29.98,NNW,338,0.0,0.0,94,0.00,,,0.00,WUHU216HW,2013-09-10 10:13:00,
2013-09-10 06:18:00,67.8,65.9,29.98,SW,225,0.0,0.8,94,0.00,,,0.00,WUHU216HW,2013-09-10 10:18:00,
2013-09-10 06:23:00,68.1,66.3,29.99,WNW,293,0.0,0.8,94,0.00,,,0.00,WUHU216HW,2013-09-10 10:23:00,
2013-09-10 06:28:00,68.1,66.3,29.99,West,270,0.0,0.0,94,0.00,,,0.00,WUHU216HW,2013-09-10 10:28:00,
2013-09-10 06:33:00,68.1,66.3,29.99,South,180,0.0,0.0,94,0.00,,,0.00,WUHU216HW,2013-09-10 10:33:00,
2013-09-10 06:38:00,68.1,66.3,29.99,WNW,293,0.0,0.0,94,0.00,,,0.00,WUHU216HW,2013-09-10 10:38:00,
2013-09-10 06:43:00,68.3,66.5,29.99,SSW,203,0.0,0.0,94,0.00,,,0.00,WUHU216HW,2013-09-10 10:43:00,
2013-09-10 06:48:00,68.1,66.3,29.99,SW,225,0.0,0.0,94,0.00,,,0.00,WUHU216HW,2013-09-10 10:48:00,
2013-09-10 06:53:00,68.3,66.5,29.99,SE,135,0.0,0.0,94,0.00,,,0.00,WUHU216HW,2013-09-10 10:53:00,
2013-09-10 06:58:00,68.3,66.5,29.99,SW,225,0.0,0.0,94,0.00,,,0.00,WUHU216HW,2013-09-10 10:58:00,
2013-09-10 07:03:00,68.3,66.5,29.99,SW,225,0.0,0.0,94,0.00,,,0.00,WUHU216HW,2013-09-10 11:03:00,
2013-09-10 07:08:00,68.3,66.5,29.99,NW,315,0.0,0.0,94,0.00,,,0.00,WUHU216HW,2013-09-10 11:08:00,
2013-09-10 07:13:00,68.5,66.7,29.99,WSW,248,0.0,0.0,94,0.00,,,0.00,WUHU216HW,2013-09-10 11:13:00,
2013-09-10 07:18:00,68.5,66.7,29.99,NW,315,0.0,0.0,94,0.00,,,0.00,WUHU216HW,2013-09-10 11:18:00,
2013-09-10 07:23:00,68.7,66.8,30.00,SW,225,0.0,0.0,94,0.00,,,0.00,WUHU216HW,2013-09-10 11:23:00,
2013-09-10 07:28:00,68.7,66.8,30.00,West,270,0.0,0.0,94,0.00,,,0.00,WUHU216HW,2013-09-10 11:28:00,
2013-09-10 07:33:00,68.7,66.8,30.00,WSW,248,0.0,0.0,94,0.00,,,0.00,WUHU216HW,2013-09-10 11:33:00,
2013-09-10 07:39:00,68.9,67.0,30.00,NE,45,0.0,0.0,94,0.00,,,0.00,WUHU216HW,2013-09-10 11:39:00,
2013-09-10 07:44:00,69.0,67.2,30.01,SW,225,0.0,0.0,94,0.00,,,0.00,WUHU216HW,2013-09-10 11:44:00,
2013-09-10 07:49:00,69.6,67.7,30.01,WSW,248,0.0,0.0,94,0.00,,,0.00,WUHU216HW,2013-09-10 11:49:00,
2013-09-10 07:54:00,69.9,68.1,30.01,SSW,203,0.0,0.0,94,0.00,,,0.00,WUHU216HW,2013-09-10 11:54:00,
2013-09-10 07:59:00,70.3,68.5,30.01,South,180,0.0,0.0,94,0.00,,,0.00,WUHU216HW,2013-09-10 11:59:00,
2013-09-10 08:04:00,70.5,68.6,30.01,SW,225,0.0,1.1,94,0.00,,,0.00,WUHU216HW,2013-09-10 12:04:00,
2013-09-10 08:09:00,71.0,69.2,30.00,WSW,248,0.0,1.1,94,0.00,,,0.00,WUHU216HW,2013-09-10 12:09:00,
2013-09-10 08:14:00,71.4,69.5,30.00,SW,225,0.0,0.0,94,0.00,,,0.00,WUHU216HW,2013-09-10 12:14:00,
2013-09-10 08:19:00,71.7,69.9,30.01,SSE,158,0.0,0.0,94,0.00,,,0.00,WUHU216HW,2013-09-10 12:19:00,
2013-09-10 08:24:00,72.1,70.3,30.00,SE,135,0.0,0.0,94,0.00,,,0.00,WUHU216HW,2013-09-10 12:24:00,
2013-09-10 08:29:00,72.6,70.8,30.00,North,0,0.0,1.5,94,0.00,,,0.00,WUHU216HW,2013-09-10 12:29:00,
2013-09-10 08:34:00,73.2,71.3,30.00,SW,225,0.0,1.5,94,0.00,,,0.00,WUHU216HW,2013-09-10 12:34:00,
2013-09-10 08:39:00,73.9,72.4,30.00,SW,225,0.0,0.0,95,0.00,,,0.00,WUHU216HW,2013-09-10 12:39:00,
2013-09-10 08:44:00,75.0,73.4,30.00,West,270,0.0,0.0,95,0.00,,,0.00,WUHU216HW,2013-09-10 12:44:00,
2013-09-10 08:49:00,75.5,73.7,30.00,SW,225,0.0,0.0,94,0.00,,,0.00,WUHU216HW,2013-09-10 12:49:00,
2013-09-10 08:54:00,76.6,74.8,30.01,SW,225,2.2,2.2,94,0.00,,,0.00,WUHU216HW,2013-09-10 12:54:00,
2013-09-10 09:00:00,77.7,75.2,30.01,SSE,158,1.7,2.2,92,0.00,,,0.00,WUHU216HW,2013-09-10 13:00:00,
2013-09-10 09:05:00,78.6,75.8,30.01,WSW,248,0.0,1.7,91,0.00,,,0.00,WUHU216HW,2013-09-10 13:05:00,
2013-09-10 09:10:00,79.5,75.6,30.01,South,180,0.0,0.0,88,0.00,,,0.00,WUHU216HW,2013-09-10 13:10:00,
2013-09-10 09:15:00,80.7,75.1,30.01,South,180,0.0,0.0,83,0.00,,,0.00,WUHU216HW,2013-09-10 13:15:00,
2013-09-10 09:20:00,81.5,75.5,30.01,ESE,113,0.0,0.0,82,0.00,,,0.00,WUHU216HW,2013-09-10 13:20:00,
2013-09-10 09:25:00,82.2,75.5,30.01,South,180,4.0,4.0,80,0.00,,,0.00,WUHU216HW,2013-09-10 13:25:00,
2013-09-10 09:30:00,83.3,75.7,30.01,South,180,0.0,4.6,78,0.00,,,0.00,WUHU216HW,2013-09-10 13:30:00,
2013-09-10 09:35:00,84.9,76.8,30.02,ENE,68,1.5,4.6,77,0.00,,,0.00,WUHU216HW,2013-09-10 13:35:00,
2013-09-10 09:40:00,85.4,75.8,30.02,South,180,0.0,5.5,73,0.00,,,0.00,WUHU216HW,2013-09-10 13:40:00,
2013-09-10 09:45:00,85.8,75.8,30.02,ESE,113,2.4,5.5,72,0.00,,,0.00,WUHU216HW,2013-09-10 13:45:00,
2013-09-10 09:50:00,86.7,75.3,30.01,East,90,0.0,2.4,69,0.00,,,0.00,WUHU216HW,2013-09-10 13:50:00,
2013-09-10 09:55:00,87.6,76.1,30.01,South,180,0.0,0.0,69,0.00,,,0.00,WUHU216HW,2013-09-10 13:55:00,
2013-09-10 10:00:00,88.5,75.7,30.02,SE,135,1.3,1.3,66,0.00,,,0.00,WUHU216HW,2013-09-10 14:00:00,
2013-09-10 10:05:00,89.7,76.4,30.02,WSW,248,0.0,1.3,65,0.00,,,0.00,WUHU216HW,2013-09-10 14:05:00,
2013-09-10 10:10:00,90.6,75.8,30.01,WSW,248,0.0,0.0,62,0.00,,,0.00,WUHU216HW,2013-09-10 14:10:00,
2013-09-10 10:15:00,91.0,76.1,30.02,SSW,203,2.9,2.9,62,0.00,,,0.00,WUHU216HW,2013-09-10 14:15:00,
2013-09-10 10:21:00,91.5,75.7,30.02,SSW,203,0.0,6.4,60,0.00,,,0.00,WUHU216HW,2013-09-10 14:21:00,
2013-09-10 10:26:00,92.4,76.0,30.02,WSW,248,0.0,6.4,59,0.00,,,0.00,WUHU216HW,2013-09-10 14:26:00,
2013-09-10 10:31:00,93.7,76.7,30.02,SSW,203,0.0,0.0,58,0.00,,,0.00,WUHU216HW,2013-09-10 14:31:00,
2013-09-10 10:36:00,93.9,75.7,30.02,SSE,158,0.0,5.3,56,0.00,,,0.00,WUHU216HW,2013-09-10 14:36:00,
2013-09-10 10:41:00,94.2,75.0,30.03,SE,135,4.0,5.3,54,0.00,,,0.00,WUHU216HW,2013-09-10 14:41:00,
2013-09-10 10:46:00,95.1,75.9,30.02,SSE,158,3.8,5.1,54,0.00,,,0.00,WUHU216HW,2013-09-10 14:46:00,
2013-09-10 10:51:00,95.9,76.4,30.02,SSE,158,1.5,4.0,53,0.00,,,0.00,WUHU216HW,2013-09-10 14:51:00,
2013-09-10 10:56:00,96.9,76.9,30.02,NW,315,0.0,2.4,53,0.00,,,0.00,WUHU216HW,2013-09-10 14:56:00,
2013-09-10 11:01:00,99.1,77.8,30.02,South,180,11.4,11.4,51,0.00,,,0.00,WUHU216HW,2013-09-10 15:01:00,
2013-09-10 11:06:00,99.5,76.9,30.02,SSW,203,3.5,11.4,49,0.00,,,0.00,WUHU216HW,2013-09-10 15:06:00,
2013-09-10 11:11:00,99.5,76.2,30.02,WSW,248,4.6,11.4,48,0.00,,,0.00,WUHU216HW,2013-09-10 15:11:00,
2013-09-10 11:16:00,100.2,75.6,30.02,SSW,203,6.9,6.9,46,0.00,,,0.00,WUHU216HW,2013-09-10 15:16:00,
2013-09-10 11:21:00,100.5,76.6,30.02,South,180,0.0,6.9,47,0.00,,,0.00,WUHU216HW,2013-09-10 15:21:00,
2013-09-10 11:27:00,102.0,77.2,30.02,SW,225,0.0,6.9,46,0.00,,,0.00,WUHU216HW,2013-09-10 15:27:00,
2013-09-10 11:32:00,104.1,78.5,30.02,North,0,0.0,0.0,45,0.00,,,0.00,WUHU216HW,2013-09-10 15:32:00,
2013-09-10 11:37:00,105.6,78.5,30.02,SSW,203,2.0,2.0,43,0.00,,,0.00,WUHU216HW,2013-09-10 15:37:00,
2013-09-10 11:42:00,106.1,78.3,30.03,East,90,0.0,2.0,42,0.00,,,0.00,WUHU216HW,2013-09-10 15:42:00,
2013-09-10 11:47:00,105.8,77.3,30.03,SW,225,3.8,3.8,41,0.00,,,0.00,WUHU216HW,2013-09-10 15:47:00,
2013-09-10 11:52:00,105.6,77.8,30.03,WSW,248,0.0,6.7,42,0.00,,,0.00,WUHU216HW,2013-09-10 15:52:00,
2013-09-10 11:57:00,105.6,77.1,30.02,SSE,158,3.8,6.7,41,0.00,,,0.00,WUHU216HW,2013-09-10 15:57:00,
2013-09-10 12:02:00,105.4,76.9,30.02,WSW,248,2.2,3.8,41,0.00,,,0.00,WUHU216HW,2013-09-10 16:02:00,
2013-09-10 12:07:00,105.6,76.4,30.02,South,180,7.6,7.6,40,0.00,,,0.00,WUHU216HW,2013-09-10 16:07:00,
2013-09-10 12:12:00,105.9,77.4,30.02,NE,45,0.0,7.6,41,0.00,,,0.00,WUHU216HW,2013-09-10 16:12:00,
2013-09-10 12:17:00,106.7,77.4,30.02,SSW,203,4.2,7.6,40,0.00,,,0.00,WUHU216HW,2013-09-10 16:17:00,
2013-09-10 12:22:00,106.8,75.5,30.02,SSE,158,0.0,4.2,38,0.00,,,0.00,WUHU216HW,2013-09-10 16:22:00,
2013-09-10 12:27:00,106.5,75.5,30.02,SSE,158,1.5,1.5,38,0.00,,,0.00,WUHU216HW,2013-09-10 16:27:00,
2013-09-10 12:32:00,107.4,76.3,30.02,South,180,7.6,7.6,38,0.00,,,0.00,WUHU216HW,2013-09-10 16:32:00,
2013-09-10 12:38:00,107.9,75.9,30.02,WSW,248,0.0,7.6,37,0.00,,,0.00,WUHU216HW,2013-09-10 16:38:00,
2013-09-10 12:43:00,108.1,76.1,30.02,WSW,248,0.8,2.9,37,0.00,,,0.00,WUHU216HW,2013-09-10 16:43:00,
2013-09-10 12:48:00,108.5,75.5,30.02,West,270,2.6,2.6,36,0.00,,,0.00,WUHU216HW,2013-09-10 16:48:00,
2013-09-10 12:53:00,108.3,76.2,30.02,South,180,3.5,4.6,37,0.00,,,0.00,WUHU216HW,2013-09-10 16:53:00,
2013-09-10 12:58:00,108.1,76.9,30.02,South,180,3.3,6.7,38,0.00,,,0.00,WUHU216HW,2013-09-10 16:58:00,
2013-09-10 13:03:00,108.5,76.3,30.02,SSE,158,0.0,6.7,37,0.00,,,0.00,WUHU216HW,2013-09-10 17:03:00,
2013-09-10 13:08:00,108.3,75.3,30.02,SW,225,1.5,3.3,36,0.00,,,0.00,WUHU216HW,2013-09-10 17:08:00,
2013-09-10 13:13:00,108.3,76.2,30.02,SSW,203,3.1,3.1,37,0.00,,,0.00,WUHU216HW,2013-09-10 17:13:00,
2013-09-10 13:18:00,108.1,75.2,30.02,SW,225,6.2,6.2,36,0.00,,,0.00,WUHU216HW,2013-09-10 17:18:00,
2013-09-10 13:23:00,108.1,76.1,30.02,WNW,293,3.3,6.2,37,0.00,,,0.00,WUHU216HW,2013-09-10 17:23:00,
2013-09-10 13:28:00,108.3,75.3,30.02,West,270,2.9,6.2,36,0.00,,,0.00,WUHU216HW,2013-09-10 17:28:00,
2013-09-10 13:34:00,108.5,75.5,30.02,South,180,0.0,2.9,36,0.00,,,0.00,WUHU216HW,2013-09-10 17:34:00,
2013-09-10 13:39:00,109.4,75.3,30.02,South,180,5.5,5.5,35,0.00,,,0.00,WUHU216HW,2013-09-10 17:39:00,
2013-09-10 13:44:00,109.2,75.2,30.02,SSW,203,9.1,9.1,35,0.00,,,0.00,WUHU216HW,2013-09-10 17:44:00,
2013-09-10 13:49:00,108.6,74.8,30.02,ESE,113,0.0,10.0,35,0.00,,,0.00,WUHU216HW,2013-09-10 17:49:00,
2013-09-10 13:54:00,109.2,75.2,30.02,West,270,0.0,10.0,35,0.00,,,0.00,WUHU216HW,2013-09-10 17:54:00,
2013-09-10 13:59:00,108.6,74.8,30.02,SSW,203,2.0,9.3,35,0.00,,,0.00,WUHU216HW,2013-09-10 17:59:00,
2013-09-10 14:04:00,109.5,74.6,30.02,South,180,4.6,9.3,34,0.00,,,0.00,WUHU216HW,2013-09-10 18:04:00,
2013-09-10 14:09:00,109.5,74.6,30.02,SE,135,4.0,6.9,34,0.00,,,0.00,WUHU216HW,2013-09-10 18:09:00,
2013-09-10 14:14:00,110.3,75.3,30.02,SSW,203,4.2,4.2,34,0.00,,,0.00,WUHU216HW,2013-09-10 18:14:00,
2013-09-10 14:19:00,110.3,74.4,30.02,SW,225,2.2,4.2,33,0.00,,,0.00,WUHU216HW,2013-09-10 18:19:00,
2013-09-10 14:24:00,110.8,74.9,30.02,SSW,203,3.1,4.2,33,0.00,,,0.00,WUHU216HW,2013-09-10 18:24:00,
2013-09-10 14:29:00,111.7,74.8,30.02,SSW,203,4.4,4.4,32,0.00,,,0.00,WUHU216HW,2013-09-10 18:29:00,
2013-09-10 14:34:00,111.5,74.7,30.02,SSW,203,4.0,4.4,32,0.00,,,0.00,WUHU216HW,2013-09-10 18:34:00,
2013-09-10 14:39:00,112.6,75.7,30.02,SW,225,2.4,4.4,32,0.00,,,0.00,WUHU216HW,2013-09-10 18:39:00,
2013-09-10 14:44:00,111.9,75.0,30.02,ENE,68,0.0,2.4,32,0.00,,,0.00,WUHU216HW,2013-09-10 18:44:00,
2013-09-10 14:49:00,112.8,75.8,30.02,West,270,0.0,2.4,32,0.00,,,0.00,WUHU216HW,2013-09-10 18:49:00,
2013-09-10 14:54:00,113.3,76.3,30.01,South,180,0.0,0.0,32,0.00,,,0.00,WUHU216HW,2013-09-10 18:54:00,
2013-09-10 15:00:00,114.4,76.3,30.01,SE,135,1.3,3.8,31,0.00,,,0.00,WUHU216HW,2013-09-10 19:00:00,
2013-09-10 15:05:00,114.8,76.6,30.02,SW,225,0.8,3.8,31,0.00,,,0.00,WUHU216HW,2013-09-10 19:05:00,
2013-09-10 15:10:00,114.0,75.1,30.01,West,270,0.0,3.8,30,0.00,,,0.00,WUHU216HW,2013-09-10 19:10:00,
2013-09-10 15:15:00,114.6,75.5,30.02,WSW,248,3.1,3.8,30,0.00,,,0.00,WUHU216HW,2013-09-10 19:15:00,
2013-09-10 15:20:00,114.6,76.4,30.01,WSW,248,0.0,3.1,31,0.00,,,0.00,WUHU216HW,2013-09-10 19:20:00,
2013-09-10 15:25:00,114.2,74.1,30.01,West,270,0.0,3.1,29,0.00,,,0.00,WUHU216HW,2013-09-10 19:25:00,
2013-09-10 15:30:00,113.1,74.4,30.02,SSW,203,4.6,4.9,30,0.00,,,0.00,WUHU216HW,2013-09-10 19:30:00,
2013-09-10 15:35:00,112.2,73.6,30.01,SSE,158,1.1,4.9,30,0.00,,,0.00,WUHU216HW,2013-09-10 19:35:00,
2013-09-10 15:40:00,111.7,73.1,30.01,South,180,2.2,8.9,30,0.00,,,0.00,WUHU216HW,2013-09-10 19:40:00,
2013-09-10 15:45:00,111.7,73.1,30.01,SW,225,12.0,12.0,30,0.00,,,0.00,WUHU216HW,2013-09-10 19:45:00,
2013-09-10 15:50:00,111.0,72.5,30.01,SW,225,2.0,12.0,30,0.00,,,0.00,WUHU216HW,2013-09-10 19:50:00,
2013-09-10 15:55:00,110.8,73.2,30.01,WSW,248,0.0,21.9,31,0.00,,,0.00,WUHU216HW,2013-09-10 19:55:00,
2013-09-10 16:00:00,110.6,72.1,30.01,SW,225,2.0,21.9,30,0.00,,,0.00,WUHU216HW,2013-09-10 20:00:00,
2013-09-10 16:05:00,110.3,71.8,30.01,SW,225,5.1,14.0,30,0.00,,,0.00,WUHU216HW,2013-09-10 20:05:00,
2013-09-10 16:10:00,109.5,72.9,30.01,SSE,158,5.1,14.0,32,0.00,,,0.00,WUHU216HW,2013-09-10 20:10:00,
2013-09-10 16:15:00,106.8,71.5,30.01,WSW,248,0.8,7.3,33,0.00,,,0.00,WUHU216HW,2013-09-10 20:15:00,
2013-09-10 16:21:00,104.7,70.5,30.01,WNW,293,0.0,7.3,34,0.00,,,0.00,WUHU216HW,2013-09-10 20:21:00,
2013-09-10 16:26:00,101.4,69.3,30.02,SSW,203,4.9,4.9,36,0.00,,,0.00,WUHU216HW,2013-09-10 20:26:00,
2013-09-10 16:31:00,98.7,69.1,30.01,SE,135,0.0,4.9,38,0.00,,,0.00,WUHU216HW,2013-09-10 20:31:00,
2013-09-10 16:36:00,97.3,69.0,30.01,WSW,248,6.0,7.6,40,0.00,,,0.00,WUHU216HW,2013-09-10 20:36:00,
2013-09-10 16:41:00,96.4,68.8,30.01,West,270,0.0,7.6,41,0.00,,,0.00,WUHU216HW,2013-09-10 20:41:00,
2013-09-10 16:46:00,95.7,68.9,30.01,WSW,248,0.0,6.0,42,0.00,,,0.00,WUHU216HW,2013-09-10 20:46:00,
2013-09-10 16:51:00,95.5,68.7,30.01,SSE,158,0.0,4.0,42,0.00,,,0.00,WUHU216HW,2013-09-10 20:51:00,
2013-09-10 16:56:00,96.2,68.7,30.01,SW,225,0.0,3.8,41,0.00,,,0.00,WUHU216HW,2013-09-10 20:56:00,
2013-09-10 17:01:00,96.0,68.5,30.01,SSW,203,6.7,6.7,41,0.00,,,0.00,WUHU216HW,2013-09-10 21:01:00,
2013-09-10 17:06:00,95.5,68.0,30.01,SSE,158,1.5,6.7,41,0.00,,,0.00,WUHU216HW,2013-09-10 21:06:00,
2013-09-10 17:11:00,94.2,67.5,30.02,SSW,203,1.5,6.7,42,0.00,,,0.00,WUHU216HW,2013-09-10 21:11:00,
2013-09-10 17:16:00,94.6,67.2,30.01,SSE,158,0.0,6.0,41,0.00,,,0.00,WUHU216HW,2013-09-10 21:16:00,
2013-09-10 17:21:00,94.6,67.2,30.02,NNW,338,0.0,6.0,41,0.00,,,0.00,WUHU216HW,2013-09-10 21:21:00,
2013-09-10 17:26:00,95.5,68.0,30.01,SSW,203,4.2,4.4,41,0.00,,,0.00,WUHU216HW,2013-09-10 21:26:00,
2013-09-10 17:31:00,97.7,69.3,30.01,WSW,248,4.2,4.2,40,0.00,,,0.00,WUHU216HW,2013-09-10 21:31:00,
2013-09-10 17:36:00,98.7,68.6,30.02,WSW,248,0.0,4.2,38,0.00,,,0.00,WUHU216HW,2013-09-10 21:36:00,
2013-09-10 17:42:00,100.7,70.4,30.02,SSE,158,2.6,4.2,38,0.00,,,0.00,WUHU216HW,2013-09-10 21:42:00,
2013-09-10 17:47:00,101.4,69.3,30.02,South,180,2.9,3.1,36,0.00,,,0.00,WUHU216HW,2013-09-10 21:47:00,
2013-09-10 17:52:00,99.6,66.9,30.02,SW,225,2.9,9.6,35,0.00,,,0.00,WUHU216HW,2013-09-10 21:52:00,
2013-09-10 17:57:00,96.0,66.2,30.02,SSW,203,2.4,9.6,38,0.00,,,0.00,WUHU216HW,2013-09-10 21:57:00,
2013-09-10 18:02:00,94.8,65.9,30.02,SW,225,0.0,2.4,39,0.00,,,0.00,WUHU216HW,2013-09-10 22:02:00,
2013-09-10 18:07:00,93.7,66.4,30.02,NW,315,0.0,3.5,41,0.00,,,0.00,WUHU216HW,2013-09-10 22:07:00,
2013-09-10 18:12:00,92.4,65.9,30.02,SSW,203,0.0,3.5,42,0.00,,,0.00,WUHU216HW,2013-09-10 22:12:00,
2013-09-10 18:17:00,91.9,66.1,30.02,WSW,248,0.0,1.5,43,0.00,,,0.00,WUHU216HW,2013-09-10 22:17:00,
2013-09-10 18:22:00,91.2,65.4,30.02,SSE,158,0.0,10.0,43,0.00,,,0.00,WUHU216HW,2013-09-10 22:22:00,
2013-09-10 18:27:00,90.8,65.7,30.02,NNE,23,2.2,10.0,44,0.00,,,0.00,WUHU216HW,2013-09-10 22:27:00,
2013-09-10 18:32:00,90.5,65.4,30.02,North,0,0.0,4.4,44,0.00,,,0.00,WUHU216HW,2013-09-10 22:32:00,
2013-09-10 18:37:00,90.3,65.9,30.01,SE,135,0.0,4.4,45,0.00,,,0.00,WUHU216HW,2013-09-10 22:37:00,
2013-09-10 18:42:00,89.9,65.6,30.01,SE,135,3.3,3.3,45,0.00,,,0.00,WUHU216HW,2013-09-10 22:42:00,
2013-09-10 18:47:00,89.7,65.4,30.02,SSW,203,0.0,6.9,45,0.00,,,0.00,WUHU216HW,2013-09-10 22:47:00,
2013-09-10 18:53:00,89.4,65.1,30.02,WNW,293,1.3,6.9,45,0.00,,,0.00,WUHU216HW,2013-09-10 22:53:00,
2013-09-10 18:58:00,89.2,64.9,30.02,NW,315,1.3,5.3,45,0.00,,,0.00,WUHU216HW,2013-09-10 22:58:00,
2013-09-10 19:03:00,88.7,65.3,30.02,SSW,203,1.3,5.3,45,0.00,,,0.00,WUHU216HW,2013-09-10 23:03:00,
2013-09-10 19:08:00,88.5,65.0,30.03,NE,45,0.0,2.9,46,0.00,,,0.00,WUHU216HW,2013-09-10 23:08:00,
2013-09-10 19:13:00,88.3,64.8,30.03,North,0,0.0,2.4,46,0.00,,,0.00,WUHU216HW,2013-09-10 23:13:00,
2013-09-10 19:18:00,87.4,64.7,30.04,SSE,158,0.0,3.8,47,0.00,,,0.00,WUHU216HW,2013-09-10 23:18:00,
2013-09-10 19:23:00,87.0,65.0,30.04,NNW,338,0.0,3.8,48,0.00,,,0.00,WUHU216HW,2013-09-10 23:23:00,
2013-09-10 19:28:00,86.5,65.1,30.04,SE,135,0.0,2.6,49,0.00,,,0.00,WUHU216HW,2013-09-10 23:28:00,
2013-09-10 19:33:00,86.5,65.7,30.04,West,270,0.0,0.0,50,0.00,,,0.00,WUHU216HW,2013-09-10 23:33:00,
2013-09-10 19:38:00,86.1,65.4,30.05,WSW,248,0.0,0.0,50,0.00,,,0.00,WUHU216HW,2013-09-10 23:38:00,
2013-09-10 19:43:00,85.4,65.3,30.05,SSW,203,0.0,0.0,51,0.00,,,0.00,WUHU216HW,2013-09-10 23:43:00,
2013-09-10 19:49:00,84.9,65.3,30.05,WSW,248,0.0,0.0,52,0.00,,,0.00,WUHU216HW,2013-09-10 23:49:00,
2013-09-10 19:54:00,84.5,65.0,30.05,NW,315,0.0,0.0,52,0.00,,,0.00,WUHU216HW,2013-09-10 23:54:00,
2013-09-10 19:59:00,83.8,64.8,30.06,SW,225,0.0,0.0,53,0.00,,,0.00,WUHU216HW,2013-09-10 23:59:00,
2013-09-10 20:04:00,83.3,64.8,30.06,West,270,0.0,0.0,54,0.00,,,0.00,WUHU216HW,2013-09-11 00:04:00,
2013-09-10 20:09:00,82.9,65.0,30.07,WNW,293,0.0,0.0,55,0.00,,,0.00,WUHU216HW,2013-09-11 00:09:00,
2013-09-10 20:14:00,82.7,64.8,30.07,West,270,4.2,4.2,55,0.00,,,0.00,WUHU216HW,2013-09-11 00:14:00,
2013-09-10 20:19:00,82.9,64.8,30.07,WSW,248,2.2,9.1,55,0.00,,,0.00,WUHU216HW,2013-09-11 00:19:00,
2013-09-10 20:24:00,82.9,65.0,30.07,NNE,23,0.0,9.1,55,0.00,,,0.00,WUHU216HW,2013-09-11 00:24:00,
2013-09-10 20:29:00,82.9,65.0,30.08,NNE,23,0.0,4.0,55,0.00,,,0.00,WUHU216HW,2013-09-11 00:29:00,
2013-09-10 20:34:00,82.7,64.8,30.07,SW,225,1.5,1.5,55,0.00,,,0.00,WUHU216HW,2013-09-11 00:34:00,
2013-09-10 20:40:00,82.2,64.8,30.08,East,90,0.0,1.5,56,0.00,,,0.00,WUHU216HW,2013-09-11 00:40:00,
2013-09-10 20:45:00,82.0,64.1,30.08,South,180,0.0,1.5,55,0.00,,,0.00,WUHU216HW,2013-09-11 00:45:00,
2013-09-10 20:50:00,81.6,64.3,30.08,SW,225,0.0,2.0,56,0.00,,,0.00,WUHU216HW,2013-09-11 00:50:00,
2013-09-10 20:55:00,81.1,63.8,30.09,WSW,248,0.0,2.0,56,0.00,,,0.00,WUHU216HW,2013-09-11 00:55:00,
2013-09-10 21:00:00,80.7,64.0,30.09,WNW,293,0.0,0.0,57,0.00,,,0.00,WUHU216HW,2013-09-11 01:00:00,
2013-09-10 21:05:00,80.2,64.1,30.09,NNE,23,0.0,0.0,58,0.00,,,0.00,WUHU216HW,2013-09-11 01:05:00,
2013-09-10 21:10:00,80.0,64.4,30.09,SE,135,0.0,0.0,59,0.00,,,0.00,WUHU216HW,2013-09-11 01:10:00,
2013-09-10 21:15:00,79.7,64.1,30.09,ENE,68,0.0,0.0,59,0.00,,,0.00,WUHU216HW,2013-09-11 01:15:00,
2013-09-10 21:20:00,79.3,64.3,30.09,NW,315,0.0,0.0,60,0.00,,,0.00,WUHU216HW,2013-09-11 01:20:00,
2013-09-10 21:25:00,78.9,64.4,30.09,North,0,0.0,0.0,61,0.00,,,0.00,WUHU216HW,2013-09-11 01:25:00,
2013-09-10 21:30:00,78.6,64.5,30.09,NW,315,0.0,0.0,62,0.00,,,0.00,WUHU216HW,2013-09-11 01:30:00,
2013-09-10 21:35:00,78.6,64.5,30.09,SSE,158,0.0,0.0,62,0.00,,,0.00,WUHU216HW,2013-09-11 01:35:00,
2013-09-10 21:41:00,78.4,64.3,30.09,WNW,293,0.0,0.0,62,0.00,,,0.00,WUHU216HW,2013-09-11 01:41:00,
2013-09-10 21:46:00,78.0,64.4,30.09,WNW,293,0.0,0.0,63,0.00,,,0.00,WUHU216HW,2013-09-11 01:46:00,
2013-09-10 21:51:00,78.0,64.4,30.09,ENE,68,0.0,0.0,63,0.00,,,0.00,WUHU216HW,2013-09-11 01:51:00,
2013-09-10 21:56:00,77.7,64.0,30.09,South,180,0.0,0.0,63,0.00,,,0.00,WUHU216HW,2013-09-11 01:56:00,
2013-09-10 22:01:00,77.5,63.9,30.09,SW,225,0.0,0.0,63,0.00,,,0.00,WUHU216HW,2013-09-11 02:01:00,
2013-09-10 22:06:00,77.1,63.5,30.09,WSW,248,0.0,0.0,63,0.00,,,0.00,WUHU216HW,2013-09-11 02:06:00,
2013-09-10 22:11:00,76.8,63.6,30.09,West,270,0.0,0.0,64,0.00,,,0.00,WUHU216HW,2013-09-11 02:11:00,
2013-09-10 22:16:00,76.6,63.9,30.09,SSE,158,0.0,0.0,65,0.00,,,0.00,WUHU216HW,2013-09-11 02:16:00,
2013-09-10 22:21:00,76.2,63.6,30.09,SE,135,0.0,0.0,65,0.00,,,0.00,WUHU216HW,2013-09-11 02:21:00,
2013-09-10 22:26:00,76.2,64.5,30.10,NW,315,0.0,2.2,67,0.00,,,0.00,WUHU216HW,2013-09-11 02:26:00,
2013-09-10 22:31:00,76.2,64.0,30.09,South,180,0.0,2.2,66,0.00,,,0.00,WUHU216HW,2013-09-11 02:31:00,
2013-09-10 22:36:00,76.2,64.0,30.09,SW,225,0.0,0.0,66,0.00,,,0.00,WUHU216HW,2013-09-11 02:36:00,
2013-09-10 22:41:00,76.2,64.0,30.10,SSW,203,0.0,0.0,66,0.00,,,0.00,WUHU216HW,2013-09-11 02:41:00,
2013-09-10 22:46:00,76.2,64.0,30.10,South,180,0.0,0.0,66,0.00,,,0.00,WUHU216HW,2013-09-11 02:46:00,
2013-09-10 22:51:00,76.4,64.0,30.10,SSW,203,0.0,0.0,66,0.00,,,0.00,WUHU216HW,2013-09-11 02:51:00,
2013-09-10 22:56:00,76.2,64.5,30.10,SSW,203,0.0,2.2,67,0.00,,,0.00,WUHU216HW,2013-09-11 02:56:00,
2013-09-10 23:02:00,76.2,64.5,30.09,SW,225,1.1,2.2,67,0.00,,,0.00,WUHU216HW,2013-09-11 03:02:00,
2013-09-10 23:07:00,76.2,64.0,30.09,South,180,0.0,1.1,67,0.00,,,0.00,WUHU216HW,2013-09-11 03:07:00,
2013-09-10 23:12:00,76.1,64.3,30.09,South,180,0.0,0.0,67,0.00,,,0.00,WUHU216HW,2013-09-11 03:12:00,
2013-09-10 23:17:00,76.1,64.3,30.09,South,180,0.0,0.0,67,0.00,,,0.00,WUHU216HW,2013-09-11 03:17:00,
2013-09-10 23:22:00,75.7,64.1,30.09,South,180,0.0,0.0,67,0.00,,,0.00,WUHU216HW,2013-09-11 03:22:00,
2013-09-10 23:27:00,75.7,63.9,30.09,SW,225,0.0,0.0,67,0.00,,,0.00,WUHU216HW,2013-09-11 03:27:00,
2013-09-10 23:32:00,75.3,63.6,30.09,SSW,203,0.0,0.0,67,0.00,,,0.00,WUHU216HW,2013-09-11 03:32:00,
2013-09-10 23:37:00,75.0,63.7,30.08,WSW,248,0.0,0.0,68,0.00,,,0.00,WUHU216HW,2013-09-11 03:37:00,
2013-09-10 23:42:00,74.8,63.9,30.08,WNW,293,0.0,0.0,69,0.00,,,0.00,WUHU216HW,2013-09-11 03:42:00,
2013-09-10 23:47:00,74.6,63.8,30.08,WSW,248,0.0,0.0,69,0.00,,,0.00,WUHU216HW,2013-09-11 03:47:00,
2013-09-10 23:52:00,74.6,64.2,30.08,SW,225,0.0,0.0,70,0.00,,,0.00,WUHU216HW,2013-09-11 03:52:00,
2013-09-10 23:57:00,74.6,63.8,30.08,SSE,158,0.0,0.0,69,0.00,,,0.00,WUHU216HW,2013-09-11 03:57:00,